Location: Bergnershof
(48.9468°N, 10.9431°E)
Time: 22:52:23
(UTC+00:00)

FALCON 9 DEB - Pass Details

Date: 03 March 2021
Orbit: 371 x 390 km, 53.0° (Epoch: 12 April)

Event Time Altitude Azimuth Distance (km) Brightness Sun altitude
Rises 18:28:00 0° 284° (WNW) 2,299 8.7 -14.7°
Reaches altitude 10° 18:30:10 10° 293° (WNW) 1,442 7.0 -15.1°
Maximum altitude 18:33:12 38° 4° (N) 620 3.9 -15.6°
Enters shadow 18:34:18 28° 49° (NE) 774 4.0 -15.8°
